User: anonymous   Login
Location: Caltech
(34.1382°N, 118.1253°W)
Time: 04:01:24
(UTC-08:00)
Language:

SL-08 R/B - Orbit

View from above orbital plane
View from above orbital plane
View from above satellite
View from above satellite

Ground track
Ground track

The orbit data is extracted from the following two-line orbital elements,

1 27561U 02054C   14331.10165007  .00001056  00000-0  25164-3 0  3520
2 27561 098.1282 106.6001 0046908 183.0023 296.7006 14.55082617636566
Epoch (UTC): 27 November 2014 02:26:22
Eccentricity: 0.0046908
inclination: 98.1282°
perigee height: 676 km
apogee height: 742 km
right ascension of ascending node: 106.6001°
argument of perigee: 183.0023°
revolutions per day: 14.55082617
mean anomaly at epoch: 296.7006°
orbit number at epoch: 63656

The dashed part of the orbit path shows where the satellite is in the earth's shadow,  

DLR